weather.gov     
National Weather Service

Regional Weather Roundup
NWS Homepage
This page is being discontinued on March 12, 2014.
The same data is available at this site. Please update your bookmarks.
Thank you, and we apologize for the inconvenience.
Please send an email to SR-SRH.Webmaster@noaa.gov with any concerns.


Current Version
Previous Version:    01  02  03  04  05  06  07  08  09  10  11  12  13  14  15  16  17  18  19  20  21  22  23  24  25  26  27  28  29  30  
   31  32  33  34  35  36  37  38  39  40  41  42  43  44  45  46  47  48  49  50  51  52  53  54  55  56  57  58  59  60  
[Printable]
667
ASUS44 KFWD 021715
RWRTX
NORTH TEXAS HOURLY WEATHER ROUNDUP
NATIONAL WEATHER SERVICE FORT WORTH TX
1200 PM CDT TUE SEP 02 2014

NOTE: "FAIR" INDICATES FEW OR NO CLOUDS BELOW 12,000 FEET WITH NO
SIGNIFICANT WEATHER AND/OR OBSTRUCTIONS TO VISIBILITY.

TXZ118-119-021800-
DALLAS/FORT WORTH METROPLEX

CITY           SKY/WX    TMP DP  RH WIND       PRES   REMARKS
DFW AIRPORT    MOSUNNY   90  71  53 S14G21    29.99R HX  96
DALLAS LOVE    PTSUNNY   89  72  56 SE10G18   30.00R HX  96
FTW MEACHAM    SUNNY     91  69  48 S9G18     29.97S HX  96
DAL-EXECUTIVE  MOSUNNY   89  71  55 VRB7      30.00R HX  95
FTW-ALLIANCE   MOSUNNY   91  70  49 SE13      29.98R HX  96
FTW-NAS-JRB    MOSUNNY   93  67  42 S10G20    30.01S HX  96
FTW-SPINKS     MOSUNNY   90  72  55 SE10      30.00R HX  96
ARLINGTON      MOSUNNY   89  71  55 SE13      29.99S HX  95
GRAND PRAIRIE  MOSUNNY   90  70  51 SE10G16   30.01R HX  95
ADDISON        MOSUNNY   88  70  55 S9G18     30.01R HX  92
MESQUITE       MOSUNNY   88  70  55 S9        30.02R HX  92
LANCASTER      MOSUNNY   89  71  54 S8        30.02R HX  95
$$

TXZ091>094-102>105-117-120-121-131>134-021800-
NORTH CENTRAL TEXAS

CITY           SKY/WX    TMP DP  RH WIND       PRES   REMARKS
SHRMAN/DENISON SUNNY     90  69  50 SE8       30.03F HX  95
GAINESVILLE    SUNNY     87  72  61 E12       30.03R HX  93
BOWIE          SUNNY     88  71  57 SE7       30.00S HX  94
BRIDGEPORT     SUNNY     89  66  47 S5        30.00R HX  91
DECATUR        SUNNY     87  68  52 SE9       30.00R HX  90
DENTON         MOSUNNY   89  70  53 S10       30.00R HX  94
MCKINNEY       MOSUNNY   89  72  56 S10       30.02R HX  96
GREENVILLE     MOSUNNY   88  70  55 S7        30.04R HX  92
ROCKWALL       PTSUNNY   87  73  61 S5G10     30.02R HX  94
TERRELL        PTSUNNY   88  73  61 VRB3      30.03R HX  95
WAXAHACHIE     PTSUNNY   87  69  54 SW8       30.01R HX  91
GRANBURY       SUNNY     92  68  44 S12       29.98S HX  96
$$

TXZ083>090-098>101-113>116-127>130-139>142-154-155-021800-
WESTERN NORTH TEXAS

CITY           SKY/WX    TMP DP  RH WIND       PRES   REMARKS
WICHITA FALLS  SUNNY     92  70  48 S12       29.95R HX  97
WF-KICKAPOO    SUNNY     93  66  41 S10G18    29.97S HX  96
VERNON         SUNNY     92  66  41 S8        29.95R HX  95
ABILENE        SUNNY     90  68  48 S17G24    29.96S HX  94
ABILENE-DYESS  SUNNY     89  69  52 S16       29.95R HX  93
BRECKENRIDGE   SUNNY     91  68  46 S14       29.95F HX  94
GRAHAM         SUNNY     91  68  46 S6        29.95R HX  95
MINERAL WELLS  SUNNY     89  70  53 S10       29.96R HX  94
STEPHENVILLE   SUNNY     87  69  54 S10G18    30.01S HX  91
COMANCHE         N/A     91  67  46 S10G16    29.98F HX  94
BROWNWOOD      SUNNY     90  68  48 S10       29.98F HX  93
COLEMAN        SUNNY     88  66  48 S10       29.99S HX  91
BRADY          SUNNY     88  68  51 SE10      29.99R HX  91
$$

TXZ143>147-156>162-174-175-021800-
CENTRAL TEXAS

CITY           SKY/WX    TMP DP  RH WIND       PRES   REMARKS
WACO           PTSUNNY   90  72  55 S10       29.98S HX  97
WACO-TSTC      PTSUNNY   93  72  49 SW16      29.98S HX 100
WACO-MCGREGOR  MOSUNNY   90  70  51 S13       29.99F HX  95
HILLSBORO      MOSUNNY   91  69  47 S15G24    30.00R HX  96
CORSICANA      MOSUNNY   90  72  55 SE14      30.02R HX  97
MEXIA          MOSUNNY   88  74  63 S9        30.00R HX  97
HEARNE           N/A     91  73  55 SE10      29.99S HX  99
CAMERON        CLOUDY    92  73  53 S7        29.98F HX 101
TEMPLE         MOSUNNY   91  70  49 S14G20    29.98R HX  97
KILLEEN        PTSUNNY   88  72  58 S13       29.99R HX  94
KILLEEN-SKYLRK PTSUNNY   91  70  49 S13G18    29.98S HX  97
FORT HOOD      MOSUNNY   90  70  51 S12       29.98S HX  95
GATESVILLE     MOSUNNY   90  70  51 S9        30.01R HX  95
HAMILTON       SUNNY     89  67  48 S14G22    30.01R HX  92
LAMPASAS       SUNNY     91  73  56 S9        29.99S HX  99
$$

TXZ095>097-106>112-122>126-135>138-148>153-164>167-021800-
EAST TEXAS

CITY           SKY/WX    TMP DP  RH WIND       PRES   REMARKS
PARIS          MOSUNNY   86  70  58 S7        30.07S HX  90
SULPHUR SPRNGS PTSUNNY   87  72  59 S6        30.08R HX  93
MOUNT PLEASANT MOSUNNY   87  71  57 CALM      30.08S HX  93
GILMER           N/A     90  73  58 S6        30.07S HX  98
MINEOLA        PTSUNNY   90  73  58 CALM      30.06R HX  98
TYLER          MOSUNNY   88  73  61 SW3       30.04R HX  95
LONGVIEW       MOSUNNY   91  72  53 S8        30.04R HX  98
MARSHALL       MOSUNNY   89  75  63 CALM      30.07S HX  98
ATHENS         MOSUNNY   86  72  62 SE8       30.02R HX  92
PALESTINE      MOSUNNY   90  75  60 S8        30.03R HX 100
JACKSONVILLE   MOSUNNY   88  73  61 S8        30.06S HX  96
HENDERSON      PTSUNNY   88  73  61 MISG      30.05R HX  95
NACOGDOCHES    PTSUNNY   84  75  74 SW5       30.03S HX  92
LUFKIN         SUNNY     91  74  57 S7        30.02S HX 100
$$

SUPPLEMENTAL OBSERVATIONS (CENTRAL)

CITY           SKY/WX    TMP DP  RH WIND       PRES   REMARKS
LAKE TEXOMA      N/A     88  70  55 SE6         N/A  HX  92
CADDO GRASSLND   N/A     88  72  58 S8          N/A  HX  94
PAT MAYSE LAKE   N/A     84  70  61 E6          N/A
GREENVILLE       N/A     90  70  51 S8          N/A  HX  95
CEDAR HILL       N/A     91  72  52 S7G15       N/A  HX  98
PALESTINE        N/A     90  73  58 S7          N/A  HX  98
LAKE LIMESTONE   N/A     93  72  49 S8          N/A  HX 100
MCGREGOR         N/A     91  72  52 S8G18       N/A  HX  98
TEMPLE           N/A     91  70  49 S15         N/A  HX  97
$$

SUPPLEMENTAL OBSERVATIONS (WEST)

CITY           SKY/WX    TMP DP  RH WIND       PRES   REMARKS
MILLERS CREEK    N/A     91  72  52 S8G20       N/A  HX  98
POSSUM KINGDOM   N/A     91  68  46 S10         N/A  HX  95
LBJ GRASSLAND    N/A     90  70  51 SE8         N/A  HX  95
GRANBURY         N/A     91  68  46 S14         N/A  HX  95
COMANCHE         N/A     91  72  52 S10G18      N/A  HX  98
HAMBY            N/A     91  68  46 S16G23      N/A  HX  95
COLORADO BEND    N/A     90  66  45 S10         N/A  HX  92
$$

SUPPLEMENTAL OBSERVATIONS (EAST)

CITY           SKY/WX    TMP DP  RH WIND       PRES   REMARKS
CLARKSVILLE      N/A     91  72  52 S2G12       N/A  HX  98
TEXARKANA        N/A     90  73  58 W5          N/A  HX  98
LINDEN           N/A     90  73  58 SW3         N/A  HX  98
CADDO LAKE       N/A     91  73  55 W5          N/A  HX 100
GILMER           N/A     91  73  55 S2          N/A  HX 100
HENDERSON        N/A     88  73  62 SW6G14      N/A  HX  96
LUFKIN           N/A     91  73  55 MISG        N/A  HX 100
N SABINE NF      N/A     93  79  62 MISG        N/A  HX 110
$$

SUPPLEMENTAL OBSERVATIONS ARE A COLLECTION OF AUTOMATED INSTRUMENTS
THAT ARE MAINTAINED BY A VARIETY OF FEDERAL AND STATE AGENCIES.
CERTAIN ELEMENTS...SUCH AS HUMIDITY VALUES AND SUSTAINED WIND
SPEEDS...MAY BE APPROXIMATED.





U.S. Dept. of Commerce
NOAA National Weather Service
1325 East West Highway
Silver Spring, MD 20910
E-mail: w-nws.webmaster@noaa.gov
Page last modified: May 16, 2007
NATIONAL WEATHER SERVICE: for Safety, for Work, for Fun - FOR LIFE